Sioux City, IA

5:16 AM CST on December 15, 2019 (GMT -0600)
Sioux Gateway

Weather History for KSUX - November, 2019

Change the Weather History Date:

Saturday, November 16, 2019

  Actual Average Record
Temperature  
Mean Temperature 44 °F 36 °F  
Max Temperature 54 °F 46 °F 75 °F (2001)
Min Temperature 35 °F 25 °F -3 °F (1959)
Degree Days  
Heating Degree Days 20 29  
Month to date heating degree days 534 403  
Since 1 July heating degree days 1177 1003  
Cooling Degree Days 0 0  
Month to date cooling degree days 0 0  
Year to date cooling degree days 910 869  
Moisture  
Dew Point 32 °F    
Average Humidity 64    
Maximum Humidity 82    
Minimum Humidity 45    
Precipitation  
Precipitation T in 0.05 in 0.97 in (1996)
Month to date precipitation 0.18 0.71  
Year to date precipitation 30.69 26.34  
Snow  
Snow 0.00 in 0.20 in 5.00 in (1909)
Month to date snowfall 2.1 1.7  
Since 1 July snowfall 2.1 2.7  
Since 1 September snowfall 2.1 2.7  
Snow Depth 0.00 in    
Sea Level Pressure  
Sea Level Pressure 30.03 in    
Wind  
Wind Speed 10 mph ()    
Max Wind Speed 24 mph    
Max Gust Speed 32 mph    
Visibility 10.0 miles    
Events Rain    
T = Trace of Precipitation, MM = Missing Value Source: Averaged Metar Reports

Daily Weather History Graph

Daily Weather History Graph

Search for Another Location

Airport or City:

Astronomy

Nov. 16, 2019 Rise Set
Actual Time 7:17 AM CST 5:02 PM CST
Civil Twilight 6:47 AM CST 5:32 PM CST
Nautical Twilight 6:13 AM CST 6:07 PM CST
Astronomical Twilight 5:39 AM CST 6:40 PM CST
Moon 8:34 PM CST (11/16) 11:14 AM CST (11/16)
Length of Visible Light 10h 45m
Length of Day
9h 45m
Waning Gibbous, 82% of the Moon is Illuminated
Nov 16
Waning Gibbous
Nov 19
Last Quarter
Nov 26
New
Dec 4
First Quarter
Dec 11
Full

Hourly Weather History & Observations

Time (CST) Temp. Windchill Dew Point Humidity Pressure Visibility Wind Dir Wind Speed Gust Speed Precip Events Conditions
12:52 AM 37.9 °F 30.5 °F 30.0 °F 73% 30.17 in 10.0 mi SE 11.5 mph - N/A   Clear
1:52 AM 37.0 °F 29.8 °F 30.0 °F 76% 30.15 in 10.0 mi SE 10.4 mph - N/A   Clear
2:52 AM 37.9 °F 29.6 °F 28.9 °F 70% 30.14 in 10.0 mi SSE 13.8 mph - N/A   Clear
3:52 AM 37.0 °F 29.8 °F 28.9 °F 73% 30.12 in 10.0 mi SSE 10.4 mph - N/A   Clear
4:52 AM 37.0 °F 30.4 °F 28.9 °F 73% 30.12 in 10.0 mi SE 9.2 mph - N/A   Clear
5:52 AM 36.0 °F 29.0 °F 28.9 °F 76% 30.12 in 10.0 mi SSE 9.2 mph - N/A   Clear
6:52 AM 36.0 °F 28.5 °F 28.0 °F 73% 30.11 in 10.0 mi SSE 10.4 mph - N/A   Clear
7:52 AM 36.0 °F 28.0 °F 28.0 °F 73% 30.11 in 10.0 mi SSE 11.5 mph 21.9 mph N/A   Clear
8:52 AM 37.9 °F 29.6 °F 28.9 °F 70% 30.10 in 10.0 mi SSE 13.8 mph - N/A   Clear
10:52 AM 46.0 °F 39.0 °F 30.0 °F 54% 30.03 in 10.0 mi SSE 17.3 mph 26.5 mph N/A   Clear
11:52 AM 48.0 °F - 32.0 °F 54% 30.00 in 10.0 mi SSE 13.8 mph - N/A   Clear
12:52 PM 52.0 °F - 32.0 °F 47% 29.98 in 10.0 mi South 18.4 mph - N/A   Clear
1:52 PM 53.1 °F - 32.0 °F 45% 29.94 in 10.0 mi SSE 16.1 mph - N/A   Clear
2:52 PM 54.0 °F - 33.1 °F 45% 29.92 in 10.0 mi South 16.1 mph 24.2 mph N/A   Clear
3:52 PM 53.1 °F - 33.1 °F 47% 29.93 in 10.0 mi South 10.4 mph - N/A   Clear
4:52 PM 50.0 °F - 33.1 °F 52% 29.94 in 10.0 mi SSE 6.9 mph - N/A   Clear
5:52 PM 48.0 °F - 34.0 °F 58% 29.96 in 10.0 mi SE 5.8 mph - N/A   Clear
6:52 PM 48.0 °F - 34.0 °F 58% 29.98 in 10.0 mi SSE 8.1 mph - N/A   Clear
7:52 PM 48.0 °F - 34.0 °F 58% 29.98 in 10.0 mi SSE 6.9 mph - N/A   Clear
8:52 PM 45.0 °F 42.6 °F 34.0 °F 65% 29.99 in 10.0 mi South 4.6 mph - N/A   Mostly Cloudy
9:52 PM 44.1 °F 42.5 °F 34.0 °F 68% 29.99 in 10.0 mi West 3.5 mph - N/A   Overcast
10:52 PM 44.1 °F 38.1 °F 37.9 °F 79% 30.00 in 10.0 mi NNW 11.5 mph - 0.00 in Rain Light Rain
11:52 PM 43.0 °F 37.7 °F 37.9 °F 82% 30.00 in 10.0 mi NW 9.2 mph - 0.00 in   Mostly Cloudy